This is the latest recevied weather packets stored in our database for station/object W0VI. If no packets are shown the sender has not sent any weather packets the latest 10 day(s).
| Time | Temp. | Humidity | Pressure | Rain* | Wind** | Luminosity | Snow |
|---|---|---|---|---|---|---|---|
| 1787926183 | 20.56° C | 71% | 1021.1 hPa | 0 mm | - | 277 W/m² | - |
| 1787925883 | 20° C | 73% | 1021.1 hPa | 0 mm | - | 275 W/m² | - |
| 1787925583 | 19.44° C | 72% | 1021.3 hPa | 0 mm | - | 264 W/m² | - |
| 1787925278 | 20° C | 72% | 1021.3 hPa | 0 mm | - | 244 W/m² | - |
| 1787924977 | 20° C | 73% | 1021.4 hPa | 0 mm | - | 236 W/m² | - |
| 1787924672 | 19.44° C | 74% | 1021.2 hPa | 0 mm | - | 206 W/m² | - |
| 1787924366 | 18.33° C | 77% | 1021.3 hPa | 0 mm | - | 186 W/m² | - |
| 1787924061 | 18.33° C | 79% | 1020.9 hPa | 0 mm | - | 130 W/m² | - |
| 1787923756 | 17.22° C | 86% | 1021.3 hPa | 0 mm | - | 164 W/m² | - |
| 1787923451 | 16.67° C | 93% | 1021.3 hPa | 0 mm | - | 144 W/m² | - |
| 1787923146 | 15.56° C | 96% | 1021.3 hPa | 0 mm | - | 108 W/m² | - |
| 1787922841 | 15.56° C | 98% | 1021.1 hPa | 0 mm | - | 87 W/m² | - |
| 1787922540 | 15.56° C | 99% | 1021.2 hPa | 0 mm | - | 45 W/m² | - |
| 1787922240 | 14.44° C | 99% | 1021 hPa | 0 mm | - | 62 W/m² | - |
| 1787921937 | 15° C | 99% | 1021.2 hPa | 0 mm | - | 40 W/m² | - |
| 1787921632 | 14.44° C | 99% | 1021.2 hPa | 0 mm | - | 42 W/m² | - |
| 1787921331 | 13.89° C | 99% | 1021.1 hPa | 0 mm | - | 32 W/m² | - |
| 1787921027 | 13.89° C | 99% | 1021.2 hPa | 0 mm | - | 29 W/m² | - |
| 1787920722 | 13.89° C | 99% | 1021.1 hPa | 0 mm | - | 28 W/m² | - |
| 1787920422 | 13.33° C | 99% | 1021.1 hPa | 0 mm | - | 28 W/m² | - |
| 1787920119 | 12.78° C | 99% | 1020.9 hPa | 0 mm | - | 31 W/m² | - |
| 1787919814 | 12.78° C | 99% | 1020.7 hPa | 0 mm | - | 27 W/m² | - |
| 1787919513 | 12.22° C | 99% | 1021 hPa | 0 mm | - | 23 W/m² | - |
| 1787919210 | 12.22° C | 99% | 1020.8 hPa | 0 mm | - | 20 W/m² | - |
| 1787918909 | 12.22° C | 99% | 1020.7 hPa | 0 mm | - | 18 W/m² | - |
* Rain latest hour (hover to see other rain measurements)
** Current wind speed in m/s (hover to see current wind gust speed)